Volver al catálogo

FENGYUN 1C DEB

ActivoSSO
NORAD 29874·DEBRIS·🇨🇳 China

Lanzado May 10, 1999 desde Taiyuan Satellite Launch Center

Loading…

Próximos Pases (próximas 24 horas)

TLE

ActualizadoSource: Space-Track

Época: Sep 14, 2026, 16:01 UTC

1 29874U 99025FU  26257.66787478  .00003010  00000-0  10835-2 0  9993
2 29874  98.3645 149.4720 0096749 254.6540 133.6447 14.31858146  7887

Sigue FENGYUN 1C DEB en tiempo real con AllMySat

Download on the App Store